TimeEDT,TemperatureF,Dew PointF,Humidity,Sea Level PressureIn,VisibilityMPH,Wind Direction,Wind SpeedMPH,Gust SpeedMPH,PrecipitationIn,Events,Conditions,WindDirDegrees,DateUTC
12:15 AM,38.8,12.2,34,29.93,10.0,NW,10.4,-,N/A,,Clear,310,2013-04-02 04:15:00
12:35 AM,38.5,12.6,35,29.94,10.0,WNW,10.4,-,N/A,,Clear,300,2013-04-02 04:35:00
12:55 AM,38.3,12.7,35,29.95,10.0,WNW,10.4,16.1,N/A,,Clear,300,2013-04-02 04:55:00
1:15 AM,37.6,13.1,37,29.96,10.0,WNW,6.9,-,N/A,,Clear,290,2013-04-02 05:15:00
1:35 AM,37.4,13.1,37,29.96,10.0,WNW,9.2,-,N/A,,Clear,300,2013-04-02 05:35:00
1:55 AM,36.5,13.6,39,29.96,10.0,WNW,10.4,-,N/A,,Clear,290,2013-04-02 05:55:00
2:15 AM,36.5,12.9,38,29.96,10.0,WNW,8.1,-,N/A,,Clear,290,2013-04-02 06:15:00
2:35 AM,35.6,13.3,40,29.96,10.0,West,4.6,-,N/A,,Clear,280,2013-04-02 06:35:00
2:55 AM,35.8,13.1,39,29.95,10.0,West,4.6,-,N/A,,Clear,280,2013-04-02 06:55:00
3:15 AM,35.4,13.1,40,29.95,10.0,West,3.5,-,N/A,,Clear,270,2013-04-02 07:15:00
3:35 AM,35.6,13.1,40,29.94,10.0,West,6.9,-,N/A,,Clear,270,2013-04-02 07:35:00
3:55 AM,34.9,13.6,42,29.95,10.0,West,8.1,-,N/A,,Clear,270,2013-04-02 07:55:00
4:15 AM,34.7,13.6,42,29.95,10.0,West,9.2,-,N/A,,Clear,270,2013-04-02 08:15:00
4:35 AM,34.9,13.5,41,29.95,10.0,West,6.9,-,N/A,,Clear,270,2013-04-02 08:35:00
4:55 AM,34.9,12.7,40,29.96,10.0,West,4.6,-,N/A,,Clear,260,2013-04-02 08:55:00
5:15 AM,34.9,12.9,40,29.96,10.0,West,6.9,-,N/A,,Clear,260,2013-04-02 09:15:00
5:35 AM,34.3,13.3,42,29.96,10.0,WSW,3.5,-,N/A,,Clear,240,2013-04-02 09:35:00
5:55 AM,33.8,14.2,45,29.97,10.0,WSW,4.6,-,N/A,,Clear,240,2013-04-02 09:55:00
6:15 AM,33.4,14.0,45,29.98,10.0,WSW,4.6,-,N/A,,Clear,240,2013-04-02 10:15:00
6:35 AM,33.1,14.7,47,29.99,10.0,WSW,4.6,-,N/A,,Clear,250,2013-04-02 10:35:00
6:55 AM,33.3,14.9,47,30.00,10.0,West,6.9,-,N/A,,Clear,280,2013-04-02 10:55:00
7:15 AM,33.4,15.3,47,30.01,10.0,West,6.9,-,N/A,,Clear,280,2013-04-02 11:15:00
7:35 AM,34.5,15.1,45,30.01,10.0,West,8.1,-,N/A,,Clear,280,2013-04-02 11:35:00
7:55 AM,35.6,14.7,42,30.02,10.0,WNW,8.1,-,N/A,,Clear,300,2013-04-02 11:55:00
8:15 AM,36.3,14.5,41,30.02,10.0,WNW,8.1,-,N/A,,Clear,290,2013-04-02 12:15:00
8:35 AM,36.9,14.5,40,30.03,10.0,WNW,9.2,17.3,N/A,,Clear,300,2013-04-02 12:35:00
8:55 AM,37.8,15.1,40,30.03,10.0,WNW,12.7,18.4,N/A,,Clear,300,2013-04-02 12:55:00
9:15 AM,38.1,15.3,39,30.03,10.0,WNW,12.7,21.9,N/A,,Scattered Clouds,290,2013-04-02 13:15:00
9:35 AM,39.4,15.8,38,30.03,10.0,WNW,13.8,21.9,N/A,,Scattered Clouds,290,2013-04-02 13:35:00
9:55 AM,39.0,15.1,38,30.04,10.0,WNW,16.1,24.2,N/A,,Scattered Clouds,290,2013-04-02 13:55:00
10:35 AM,40.3,15.3,36,30.04,10.0,WNW,17.3,29.9,N/A,,Scattered Clouds,290,2013-04-02 14:35:00
10:55 AM,38.7,16.3,40,30.04,10.0,WNW,15.0,23.0,N/A,,Mostly Cloudy,290,2013-04-02 14:55:00
11:15 AM,40.5,16.5,38,30.04,10.0,WNW,20.7,28.8,N/A,,Scattered Clouds,290,2013-04-02 15:15:00
11:35 AM,41.2,15.3,35,30.03,10.0,WNW,16.1,26.5,N/A,,Unknown,300,2013-04-02 15:35:00
11:55 AM,40.8,13.8,33,30.03,10.0,WNW,15.0,24.2,N/A,,Unknown,300,2013-04-02 15:55:00
12:15 PM,41.9,14.4,33,30.02,10.0,West,13.8,23.0,N/A,,Scattered Clouds,280,2013-04-02 16:15:00
12:35 PM,42.1,14.7,33,30.01,10.0,WNW,16.1,26.5,N/A,,Scattered Clouds,290,2013-04-02 16:35:00
12:55 PM,42.8,13.6,31,30.01,10.0,WNW,13.8,19.6,N/A,,Scattered Clouds,290,2013-04-02 16:55:00
1:15 PM,43.2,13.5,30,30.00,10.0,NW,13.8,25.3,N/A,,Mostly Cloudy,310,2013-04-02 17:15:00
1:35 PM,43.3,14.2,31,30.00,10.0,WNW,16.1,27.6,N/A,,Mostly Cloudy,300,2013-04-02 17:35:00
1:55 PM,45.0,13.8,29,30.00,10.0,West,17.3,25.3,N/A,,Scattered Clouds,270,2013-04-02 17:55:00
2:15 PM,45.0,13.3,28,29.99,10.0,West,20.7,28.8,N/A,,Scattered Clouds,280,2013-04-02 18:15:00
2:35 PM,44.8,13.5,28,29.99,10.0,West,13.8,27.6,N/A,,Mostly Cloudy,280,2013-04-02 18:35:00
2:55 PM,44.6,12.9,28,29.98,10.0,WNW,18.4,27.6,N/A,,Mostly Cloudy,300,2013-04-02 18:55:00
3:15 PM,45.3,12.0,26,29.98,10.0,WNW,20.7,28.8,N/A,,Mostly Cloudy,290,2013-04-02 19:15:00
3:35 PM,44.6,11.8,27,29.98,10.0,West,13.8,24.2,N/A,,Scattered Clouds,270,2013-04-02 19:35:00
3:55 PM,44.4,11.3,26,29.98,10.0,West,21.9,27.6,N/A,,Scattered Clouds,280,2013-04-02 19:55:00
4:15 PM,46.4,11.8,25,29.97,10.0,West,18.4,27.6,N/A,,Scattered Clouds,270,2013-04-02 20:15:00
4:35 PM,45.1,11.7,26,29.98,10.0,West,20.7,28.8,N/A,,Scattered Clouds,270,2013-04-02 20:35:00
4:55 PM,46.4,11.7,25,29.98,10.0,West,19.6,25.3,N/A,,Scattered Clouds,270,2013-04-02 20:55:00
5:15 PM,45.7,11.7,25,29.98,10.0,WNW,18.4,27.6,N/A,,Scattered Clouds,290,2013-04-02 21:15:00
5:35 PM,45.5,10.6,24,29.99,10.0,West,20.7,27.6,N/A,,Scattered Clouds,270,2013-04-02 21:35:00
5:55 PM,44.8,11.1,26,29.99,10.0,WNW,17.3,26.5,N/A,,Scattered Clouds,290,2013-04-02 21:55:00
6:15 PM,45.0,10.9,25,30.00,10.0,West,20.7,27.6,N/A,,Clear,280,2013-04-02 22:15:00
6:35 PM,44.2,10.0,25,30.01,10.0,WNW,20.7,28.8,N/A,,Clear,290,2013-04-02 22:35:00
6:55 PM,43.7,11.1,27,30.01,10.0,West,12.7,27.6,N/A,,Clear,280,2013-04-02 22:55:00
7:15 PM,43.2,10.9,27,30.01,10.0,West,19.6,25.3,N/A,,Clear,280,2013-04-02 23:15:00
7:35 PM,42.6,11.3,28,30.02,10.0,West,15.0,18.4,N/A,,Clear,280,2013-04-02 23:35:00
7:55 PM,42.4,11.1,28,30.03,10.0,West,13.8,19.6,N/A,,Clear,280,2013-04-02 23:55:00
8:15 PM,42.3,11.1,28,30.03,10.0,West,11.5,19.6,N/A,,Clear,270,2013-04-03 00:15:00
8:35 PM,41.9,11.3,29,30.04,10.0,West,15.0,-,N/A,,Clear,280,2013-04-03 00:35:00
8:55 PM,41.2,12.0,30,30.05,10.0,West,10.4,-,N/A,,Clear,280,2013-04-03 00:55:00
9:15 PM,41.4,11.7,30,30.06,10.0,West,13.8,19.6,N/A,,Clear,280,2013-04-03 01:15:00
9:35 PM,41.0,11.8,30,30.06,10.0,West,13.8,23.0,N/A,,Clear,280,2013-04-03 01:35:00
9:55 PM,40.5,12.2,32,30.07,10.0,West,10.4,-,N/A,,Clear,280,2013-04-03 01:55:00
10:15 PM,40.5,12.0,31,30.08,10.0,West,12.7,18.4,N/A,,Clear,280,2013-04-03 02:15:00
10:35 PM,40.3,12.6,32,30.08,10.0,West,6.9,-,N/A,,Clear,270,2013-04-03 02:35:00
10:55 PM,40.1,12.9,33,30.08,10.0,West,8.1,-,N/A,,Clear,270,2013-04-03 02:55:00
11:15 PM,39.4,13.1,34,30.09,10.0,West,12.7,-,N/A,,Clear,280,2013-04-03 03:15:00
11:35 PM,38.3,13.3,36,30.09,10.0,West,9.2,-,N/A,,Clear,280,2013-04-03 03:35:00
11:55 PM,38.5,13.8,37,30.09,10.0,West,10.4,-,N/A,,Clear,280,2013-04-03 03:55:00